Location: LDNL
(36.4545°S, 141.6685°E)
Time: 13:04:24
(UTC+11:00)

ISS - Pass Details

Date: 11 December 2021
Orbit: 413 x 422 km, 51.6° (Epoch: 26 January)

Event Time Altitude Azimuth Distance (km) Brightness Sun altitude
Rises 04:48:57 0° 217° (SW) 2,383 0.2 -13.7°
Reaches altitude 10° 04:51:48 10° 191° (S) 1,516 -0.5 -13.3°
Maximum altitude 04:53:47 15° 155° (SSE) 1,265 -0.3 -13.0°
Drops below altitude 10° 04:55:46 10° 120° (ESE) 1,512 0.5 -12.7°
Sets 04:58:35 0° 94° (E) 2,373 1.0 -12.3°
